Location: Maiden
(35.5760°N, 81.2120°W)
Time: 01:02:15
(UTC-04:00)

NOSS 2-3 (C) - Pass Details

Date: 14 June 2018
Orbit: 619 x 1592 km, 63.4° (Epoch: 16 October)

Event Time Altitude Azimuth Distance (km) Brightness Sun altitude
Exits shadow 22:19:09 - 203° (SSW) 2,874 6.8 -16.5°
Reaches altitude 10° 22:21:20 10° 201° (SSW) 1,983 5.9 -16.8°
Maximum altitude 22:25:40 68° 118° (ESE) 706 3.6 -17.4°
Drops below altitude 10° 22:30:35 10° 36° (NE) 2,240 6.6 -18.1°
Sets 22:33:11 0° 34° (NE) 3,287 7.5 -18.4°
